RH
54 49 44 38 33 29 26 28 22 19 22 25 31 34 35 34 34 39 43 47 48 49 47 46 43 41 40 40 39 38 42 41 32 26 26 21 20 19 17 17 14 14 14 14 15
52 53 47 41 37 31 26 28 22 18 24 27 32 35 35 34 35 38 41 44 46 46 46 46 45 41 41 41 40 40 41 34 33 27 26 23 20 17 16 17 16 14 15 16 19
50 54 48 41 35 29 25 28 21 19 25 29 33 36 36 36 39 39 39 42 44 43 43 43 44 42 41 40 40 40 38 36 34 29 24 21 20 17 16 17 14 14 15 16 17
51 48 47 40 34 26 26 28 21 21 27 30 33 37 35 36 37 38 38 40 42 41 42 42 42 42 41 41 39 41 38 34 31 26 21 19 16 15 14 16 14 14 14 14 15
44 44 42 35 29 24 27 26 20 23 30 31 34 38 38 37 40 39 38 40 39 40 41 43 42 41 42 40 37 35 33 28 24 19 16 14 13 13 14 14 14 14 15 15 16
41 39 36 30 25 25 28 24 20 26 30 30 34 34 35 36 38 41 38 39 38 42 41 39 43 42 40 38 35 31 25 20 16 13 12 13 14 14 14 14 14 14 16 17 16
35 32 30 25 23 27 27 23 22 28 29 30 31 34 40 42 39 41 45 40 40 39 45 42 42 37 35 33 27 19 15 12 12 13 13 13 14 14 13 13 14 16 16 15 15
29 27 24 22 28 28 25 21 25 31 28 29 31 30 37 42 38 43 43 40 52 46 47 44 33 30 27 20 13 11 10 13 16 15 14 13 13 16 14 15 16 16 15 15 15
23 22 25 30 28 27 23 22 28 31 27 28 28 30 29 30 33 37 49 42 34 30 26 27 24 18 12 11 11 12 10 15 18 14 15 13 14 17 17 16 16 15 16 16 16
27 31 31 28 28 25 21 24 30 31 26 27 26 25 30 35 31 32 38 30 25 18 16 15 12 12 11 11 12 15 14 12 13 17 15 16 16 18 16 15 17 17 16 16 16
31 30 29 29 25 21 21 27 33 31 26 23 22 22 22 22 22 24 20 16 13 12 13 12 13 12 13 13 11 10 12 12 14 17 16 14 15 16 18 18 18 17 16 16 16
25 25 25 22 19 18 23 29 29 29 25 19 15 15 16 16 18 17 13 12 12 13 12 12 12 15 12 13 13 14 13 16 17 17 16 16 18 18 18 17 17 17 16 16 16
27 24 21 18 18 18 25 27 25 26 26 18 14 14 14 13 15 15 13 13 13 13 13 14 18 15 14 15 16 16 17 16 16 19 19 20 15 15 17 17 17 18 17 17 18
27 26 21 17 18 21 26 23 24 25 22 17 16 15 14 14 16 14 14 15 15 16 16 16 17 16 16 17 17 18 18 17 19 21 19 20 12 17 17 18 17 18 17 17 18
27 26 22 22 22 22 24 22 24 23 20 19 17 16 16 16 19 18 16 17 18 18 18 20 19 18 19 18 18 19 20 20 22 21 17 16 20 18 18 18 17 17 17 18 18
24 26 24 24 20 20 24 22 21 19 26 22 20 18 18 19 19 18 18 18 19 20 20 21 20 18 20 20 19 20 20 20 20 17 20 17 19 17 19 16 15 16 17 17 17
22 25 26 22 25 20 23 23 22 23 24 25 25 24 22 23 22 23 22 20 21 21 21 20 20 18 18 20 21 22 21 18 25 29 24 22 19 15 18 15 15 16 16 16 17
23 24 24 22 22 22 22 22 25 23 21 25 25 24 24 23 24 26 25 22 20 19 18 19 23 22 21 22 22 20 18 17 20 19 19 22 19 18 16 15 15 16 16 17 19
22 23 23 23 22 21 23 22 24 23 25 25 25 25 25 24 22 24 22 22 21 18 19 18 19 20 20 21 20 21 17 21 17 17 19 15 17 16 16 15 16 17 18 20 21
24 24 24 24 23 23 25 25 26 25 25 25 25 22 25 26 24 24 23 26 24 20 20 19 17 18 18 18 17 17 20 21 23 21 21 16 18 19 19 18 18 19 20 21 23
28 26 24 26 26 27 26 26 23 21 23 23 23 26 25 26 24 25 24 27 25 21 19 18 15 17 15 16 17 20 19 19 20 20 21 21 19 20 19 20 21 22 22 24 27
23 23 20 21 26 28 28 26 23 23 23 24 24 25 25 25 23 24 24 25 23 21 19 18 17 16 16 18 18 19 20 20 24 24 24 25 22 18 20 22 23 24 25 28 32
29 26 25 26 30 26 25 24 24 23 24 26 27 27 26 26 25 23 24 24 22 21 21 20 19 21 22 25 24 20 20 21 21 26 26 27 22 22 26 29 29 29 30 33 32
23 26 26 28 29 28 27 28 28 27 27 26 23 21 20 21 20 21 23 24 23 24 23 23 22 22 24 25 25 23 23 22 23 25 24 24 26 28 34 35 34 32 32 34 38
27 26 22 22 23 25 25 25 25 24 24 23 23 23 23 22 22 22 24 26 26 28 27 26 25 23 23 21 22 22 22 23 27 26 29 26 31 33 35 36 35 34 37 41 44
33 31 29 28 27 25 25 22 20 20 21 21 21 21 20 20 21 22 23 24 24 29 30 29 28 28 26 26 30 30 30 31 30 31 30 33 35 37 36 34 34 36 38 41 44
33 32 33 32 31 31 31 31 29 30 30 29 27 29 29 30 29 28 29 29 29 31 34 34 34 38 36 34 34 33 32 30 28 27 29 31 30 30 30 30 33 38 40 41 43